Terminal Aerodrome Forecast
Issued by NWS

Home | Current Version | Previous Version | Text Only | Print | Product List | Glossary On
Versions: 1 2 3 4 5 6 7 8 9 10 11 12 13 14 15
000
FTUS46 KEKA 290541
TAFUKI
TAF
KUKI 290541Z 2906/3006 33005KT P6SM SCT070 BKN150
     FM291000 14006KT 6SM -SHRA SCT015 OVC050
     FM291300 33007KT P6SM SCT025 BKN040=

USA.gov is the U.S. government's official web portal to all federal, state and local government web resources and services.